NapervilleWeather.com

Find the Weather for any City, State  
or Zipcode, or Country:

Naperville, IL Weather
Local Radar

Local Radar

Graphs, Details
Graphs and Gauges
Detailed Weather
Detailed Reports
Ajax Version (old)
Davis Summary
Davis Current Weather Graphs
Davis 24 Hour Weather History
Cumulus

CW7164 Data

Weather Underground
www.awekas.at
Automatic Weather Map System
Latest Naperville, Illinois, weather
Weather For You
Maps
Temperature
Heat Index
Windchill
Humidity
Radar
Dew Point
Wind
Visibility
Visible Satellite
Satellite
Fronts
Snow Depth
Jet Stream
Flight Rules
Forecast Maps
Temperature Forecast
Maximum Temperature Forecast
Minimum Temperature Forecast
Dewpoint Forecast
Prevalent Weather
12Hr Probability of Precip.
Sky Cover
Health Maps
UV Forecast
Air Quality
Peak Air Quality Index
Weather Station
Davis Instruments Vantage Pro2
Current Conditions [Select Refresh to Update]

Updated: 8:00am on 7/30/16

(location)
Currently:
69.6°F

Clear
Overcast

High: 69.6 °F< 
(7:59am
Low: 67.6 °F 
(5:15am)
Wind: WNW 0 mph
Calm
Gust: 0 mph
Today's High Wind: 1 mph (12:38am)
Humidity: 0%
Pressure: 29.95 in  (Steady
Pressure Rate: 0.008 in/hr
Dew Point: 0.0°F
Wind Chill: 69.6 °F
Heat Index (feels like): 67.4 °F
Comfort Level: Comfortable
Temperature Rate:  0.73°F/hr
 
5 Day Forecast
 
Sat Sun Mon Tue Wed
Clear Clear Clear Clear Clear
T-storms Mostly Cloudy Mostly Cloudy Chance T-storms Chance T-storms
80 82 85 86 86
63 64 66 68 70

Records and Normals
 
Temperature Forecast Normal Record
High 80 84 98
(1999)
Low 63 62 49
(1997)
 
 
Weather Advisories
No Warnings
Full Advisory Text...
Weather Map

Web Cam

Almanac
 
Sunrise:  
5:47am
Moonrise: 
2:39am

Moon Phase:
13%

Sunset: 
8:14pm
Moonset:  
5:28pm
 Star Chart...
Rainfall Totals
Hourly Rain 0.00 in
Daily Rain: 0.00 in
Monthly Rain: 6.09 in
Yearly Rain: 22.91 in
Normal Rain, month to date: 5.72 in
Normal Rain, year to date: 23.14 in
Local Weather Exchange Network
Station ID City 
(Click for Map Location)
Neighborhood 
(Click for History)
Last Update (Date & Time) Temperature
 ()
Dew
Point ()
Humidity 
(%)
Wind 
(mph)
from the Wind Gust 
(mph) 
Pressure(in) Hourly
Rain(in)
KILWARRE7 Warrenville West Bauer Road 07/30 07:45:07 70.0 68.0 92 0 North 0 29.94 0.00
KILNAPER15 Naperville Indian Hill Near Jefferson JHS 07/30 07:49:57 70.0 67.0 91 0 North 0 29.92 0.00
KILNAPER33 Naperville Downtown 07/30 07:42:51 69.1 69.0 100 0 North 0 29.90 0.00
KILNAPER28 Naperville Pawnee Lane 07/30 07:41:46 69.6 68.0 93 0 North 0 29.94 0.00
KILNAPER25 Naperville brushhill-w 07/30 07:41:43 70.3 67.0 90 0 NE 0 29.91 0.00
KILNAPER24 Naperville Brush Hill 07/30 07:41:42 70.5 68.0 92 0 NE 5 29.88 0.00
KILWARRE10 Warrenville Cantera Village Townhomes 07/30 07:49:23 70.5 69.0 94 0 ENE 0 29.93 0.00
KILNAPER19 Naperville Brookdale Lakes 07/30 07:50:00 71.7 69.0 91 0 East 3 29.93 0.00
KILNAPER69 Naperville East Highlands 07/30 07:49:33 71.6 67.0 85 0 ESE 0 29.95 0.00
KILNAPER7 Naperville NapervilleWeather.com Near Ogden and Naper Blvd 07/30 07:49:56 69.3 0.0 0 0 WNW 0 29.95 0.00
KILWARRE2 Warrenville Warrenville Neighborhood Weather 07/30 07:41:58 69.1 68.0 97 0 NNW 0 29.90 0.00
KILNAPER60 Naperville Longwood 07/30 07:49:56 71.1 68.0 90 0 ENE 1 29.96 0.00
KILNAPER31 Naperville Savannah Circle 07/30 07:41:32 70.0 54.0 56 0 North 0 29.96 0.00
KILNAPER74 Naperville Ambleside Circle 07/30 07:41:35 69.6 70.0 100 0 North 0 29.96 0.00
KILLISLE15 Lisle Highview Drive 07/30 07:44:57 70.5 68.0 90 0 North 0 29.94 0.00
KILNAPER30 Naperville Cypress Drive 07/30 07:40:48 69.4 69.0 97 0 North 0 29.96 0.00
KILLISLE10 Lisle Maple Avenue 07/30 07:41:58 69.8 68.0 94 0 North 0 30.02 0.00
KILNAPER70 Naperville Naperville Central 07/30 07:50:02 70.7 68.0 90 0 NE 0 29.96 0.00
KILLISLE9 Lisle Park Meadow Drive 07/30 07:40:37 70.2 68.0 93 0 North 0 29.98 0.00
KILWARRE6 Warrenville Summer Lakes 07/30 07:41:33 70.4 68.0 91 2 NE 6 29.93 0.00
KILWHEAT20 Wheaton Dorset Drive - Stonehedge 07/30 07:49:44 69.0 66.0 90 0 NNW 2 29.96 0.00
KILNAPER9 Naperville 75th St. / Modaff Area 07/30 07:49:58 69.2 69.0 100 0 WSW 2 29.92 0.00
KILLISLE7 Lisle Beau Monde Drive 07/30 07:41:32 70.0 68.0 94 0 North 0 29.95 0.00
KILWHEAT8 Wheaton Wheaton Sanitary District 07/30 07:44:28 70.4 68.0 92 0 NNE 7 29.94 0.00
KILWHEAT15 Wheaton Schubert Court 07/30 07:34:57 70.3 70.0 100 0 North 0 29.90 0.00
KILWHEAT11 Wheaton Wheaton SW Orth Ct 07/30 07:49:55 70.2 66.0 86 1 North 2 29.94 0.00
KILNAPER72 Naperville Blackstone Drive 07/30 07:44:11 70.7 68.0 91 0 North 0 29.96 0.00
KILLISLE13 Lisle Oakwood Drive 07/30 07:42:53 69.8 67.0 92 0 North 0 29.91 0.00
KILAUROR47 Aurora Molitor Road 07/30 07:43:47 70.9 56.0 58 0 North 0 28.27 0.00
KILAUROR41 Aurora Hamman Way 07/30 07:44:09 68.9 68.0 97 0 North 0 29.96 0.00
KILNAPER67 Naperville Split Oak Road 07/30 07:44:07 69.8 70.0 100 0 North 4 30.02 0.00
KILAUROR31 Aurora Downing Court 07/30 07:44:16 68.4 68.0 100 0 North 0 29.96 0.00
KILAUROR27 Aurora Stonehaven 07/30 07:46:31 71.8 66.0 83 4 NW 0 29.97 0.00
KILNAPER35 Naperville Nutmeg Lane 07/30 07:41:59 69.8 70.0 100 0 North 0 30.04 0.00
KILNAPER77 Naperville Duke Ct - K9POL 07/30 07:49:28 70.7 66.0 86 3 East 0 29.93 0.00
KILAUROR50 Aurora Reddington Drive 07/30 07:43:39 67.6 43.0 41 0 North 0 29.96 0.00
KDPA Chicago DuPage Official Station 07/30 06:52:00 70.0 65.0 84 7 NE --- 29.96 ---
KLOT Romeoville Official Station 07/30 07:35:00 70.0 66.0 86 7 ENE --- 29.97 ---
KARR Aurora Official Station 07/30 07:41:00 71.0 67.0 87 7 NE --- 29.97 ---
KJOT Joliet Official Station 07/30 07:35:00 72.0 69.0 89 6 NNE --- 29.96 ---
Full Advisory Text
No Warnings

Ambient Weather and Weather Underground
 Never base important decisions on this or any weather information obtained from the Internet
Updated Automatically by Ambient Weather's Virtual Weather Station  V14.01